Location: Unspecified
(0.0000°N, 0.0000°E)
Time: 03:12:23
(UTC+00:00)

Altair - Pass Details

Date: 02 February 2021
Orbit: 1501 x 1682 km, 47.2° (Epoch: 24 February)

Event Time Altitude Azimuth Distance (km) Brightness Sun altitude
Rises 22:31:18 0° 209° (SSW) 4,645 10.4 -59.8°
Reaches altitude 10° 22:34:26 10° 203° (SSW) 3,674 9.7 -60.5°
Enters shadow 22:34:38 11° 203° (SSW) 3,613 9.7 -60.5°
